Location: St Paul
(33.9360°N, 83.4200°W)
Time: 13:07:01
(UTC-05:00)

SL-8 Rocket - Pass Details

Date: 06 October 2017
Orbit: 958 x 990 km, 82.9° (Epoch: 11 December)

Event Time Altitude Azimuth Distance (km) Brightness Sun altitude
Rises 20:23:57 0° 182° (S) 3,621 7.0 -16.0°
Reaches altitude 10° 20:26:25 10° 181° (S) 2,679 6.3 -16.5°
Maximum altitude 20:32:33 82° 95° (E) 972 3.9 -17.8°
Drops below altitude 10° 20:38:44 10° 8° (N) 2,706 6.3 -19.0°
Sets 20:41:15 0° 8° (N) 3,660 7.0 -19.6°
